{"data":{"norad_id":65403,"intl_designator":"2025-135BV","name":"LEMUR-2-LUCILLE-ROSE","alt_names":[],"object_type":"PAYLOAD","status":"ACTIVE","operator":null,"country":"US","launch_date":"2025-06-23","launch_site_code":"AFWTR","launch_vehicle":null,"mission":null,"orbit_class":"UNKNOWN","rcs_meters":null,"size_class":null,"mass_kg":null,"dimensions":null,"purposes":["earth_obs"],"wikipedia_slug":null,"has_3d_model":false,"image_url":null,"decayed_at":null,"tle_current":{"epoch":"2026-05-24T19:27:10.475424Z","epoch_age_seconds":101499,"freshness":"FRESH","line1":"1 65403U 25135BV  26144.81053791  .00007283  00000+0  59298-3 0  9990","line2":"2 65403  97.7732 261.0572 0011035  11.7673 348.3806 14.99775827 45137","mean_motion":14.99775827,"eccentricity":0.0011035,"inclination_deg":97.7732,"raan_deg":261.0572,"arg_perigee_deg":11.7673,"mean_anomaly_deg":348.3806,"bstar":0.00059298,"rev_number":4513,"period_min":96.014349216471,"perigee_km":559.92377453025,"apogee_km":575.25299044941,"semimajor_km":6945.7253824898,"source":"CELESTRAK","updated_at":"2026-05-25T13:38:13.572572Z"}}}